Retour au catalogue

ARIANE 5 R/B

ActifHEO
NORAD 44477·ROCKET BODY·🇫🇷 France

Lancé Aug 6, 2019 depuis Guiana Space Centre

Loading…

Prochains Passages (prochaines 24 heures)

TLE

FraisSource: Space-Track

Époque: Sep 14, 2026, 03:31 UTC

1 44477U 19049C   26257.14664832  .00007180  00000-0  52090-3 0  9990
2 44477   4.1483 205.5369 6603571 263.4248  23.2722  3.21015369 68849

Suivez ARIANE 5 R/B en temps réel avec AllMySat

Download on the App Store